FLOCK 2E'-8 (41569 NORAD) Tracking and Keplerian Element Data

This shows tracking and keplerian element data for the satellite.

Feedback or suggestion? Click here.




ElementValue
Catalog41569
NameFLOCK 2E'-8
Epoch Orbit10585
Epoch Day95.6004634
Epoch Year2018
RAAN297.1335
Inclination51.612
Eccentricity0.0009822
Argument of Perigee279.7919
Mean Anonmoly80.1997
Mean Motion16.35932588
Decay Rate0.08263427
L11 41569U 98067JT 18095.60046340 .08263427 12312-4 94260-3 0 9990
L22 41569 51.6120 297.1335 0009822 279.7919 80.1997 16.35932588105850



Live tracking and technical data element details for FLOCK 2E'-8 (NORAD 41569). FLOCK 2E'-8 can be tracked NOW for your location showing map with azimuth and elevation plus other details from your city location.







IsCatalogInMostPopularTable: catalog: 41569, numindb: 657
Update: records affected: 1



GetName: 41569 FLOCK 2E'-8

Hit Count: updated at: Sat, 17 May 2025 08:30:10 GMT